7 * 24
多渠道服务支持
STARLINK-37614(NORAD编号69041)是SpaceX星链(Starlink)星座中的一颗通信卫星,隶属于SpaceX公司主导的全球近地轨道卫星互联网项目。星链计划旨在通过部署数千颗低轨卫星,为全球提供高速泛在的天基互联网接入服务,尤其覆盖网络基础设施薄弱区域。该卫星运行于近地轨道,纳入星链大规模星座组网体系,承担卫星通信转发功能,支持全球范围内的宽带互联网接入服务,是星链星座持续扩展组网中的单元卫星,推动星座实现全球覆盖的服务目标。
美国
(US)
| 数据来源 | 国际轨道数据 |
| 星历时间: | 2026-06-12T12:18:59+0800 18小时前 查看轨道信息 |
| 半长轴: | 6843.652km |
| 偏心率: | 0.0001256 |
| 轨道倾角: | 97.285° |
| 近地点辐角 | 123.454° |
| 升交点赤经 | 18.069° |
| 平近点角 | 236.682° |
| 近地点: | 464.655km |
| 远地点: | 466.375km |
| 周期: | 93.906分钟 |
| 每日圈数: | 15.334545 |